Thermal, CA

3:10 PM PDT on September 28, 2016 (GMT -0700)
Desert Resorts Regional

Weather History for KTRM - March, 2013

Change the Weather History Date:

Wednesday, March 27, 2013

  Actual Average Record
Temperature  
Mean Temperature 72 °F 66 °F  
Max Temperature 88 °F 83 °F 100 °F (1988)
Min Temperature 55 °F 49 °F 35 °F (1995)
Degree Days  
Heating Degree Days 0 2  
Month to date heating degree days 34 87  
Since 1 July heating degree days 1122 1152  
Cooling Degree Days 7 3  
Month to date cooling degree days 129 50  
Year to date cooling degree days 129 62  
Growing Degree Days 22 (Base 50)    
Moisture  
Dew Point 37 °F    
Average Humidity 33    
Maximum Humidity 51    
Minimum Humidity 15    
Precipitation  
Precipitation 0.00 in 0.01 in 0.45 in (1991)
Month to date precipitation 0.07 0.36  
Year to date precipitation 0.44 1.69  
Since 1 July precipitation 2.62  
Snow  
Snow 0.00 in - - ()
Month to date snowfall 0.0  
Year to date snowfall 0.0  
Snow Depth 0.00 in    
Sea Level Pressure  
Sea Level Pressure 29.83 in    
Wind  
Wind Speed 7 mph (NW)    
Max Wind Speed 17 mph    
Max Gust Speed 22 mph    
Visibility 10 miles    
Events      
T = Trace of Precipitation, MM = Missing Value Source: NWS Daily Summary

Daily Weather History Graph

Daily Weather History Graph

Search for Another Location

Airport or City:

Trip Planner

Search our weather history database for the weather conditions in past years. The results will help you decide how hot, cold, wet, or windy it might be!

Date:

Astronomy

Mar. 27, 2013 Rise Set
Actual Time 6:38 AM PDT 7:01 PM PDT
Civil Twilight 6:13 AM PDT 7:26 PM PDT
Nautical Twilight 5:44 AM PDT 7:55 PM PDT
Astronomical Twilight 5:14 AM PDT 8:25 PM PDT
Moon 7:46 PM PDT (3/27) 6:34 AM PDT (3/27)
Length of Visible Light 13h 13m
Length of Day
12h 23m
Full, 100% of the Moon is Illuminated
Mar 27
Full
Apr 2
Last Quarter
Apr 10
New
Apr 18
First Quarter
Apr 25
Full

Hourly Weather History & Observations

Time (PDT) Temp. Dew Point Humidity Pressure Visibility Wind Dir Wind Speed Gust Speed Precip Events Conditions
12:52 AM 71.1 °F 35.1 °F 27% 29.82 in 10.0 mi NNW 12.7 mph - N/A   Clear
1:52 AM 69.1 °F 34.0 °F 27% 29.81 in 10.0 mi NW 9.2 mph - N/A   Clear
2:52 AM 69.1 °F 34.0 °F 27% 29.81 in 10.0 mi NNW 13.8 mph - N/A   Clear
3:52 AM 66.9 °F 35.1 °F 31% 29.78 in 10.0 mi NW 6.9 mph - N/A   Clear
4:52 AM 64.9 °F 39.0 °F 39% 29.78 in 10.0 mi WNW 9.2 mph - N/A   Clear
5:52 AM 61.0 °F 37.0 °F 41% 29.80 in 10.0 mi Variable 4.6 mph - N/A   Clear
6:52 AM 55.0 °F 37.9 °F 53% 29.82 in 10.0 mi Calm Calm - N/A   Clear
7:52 AM 68.0 °F 37.9 °F 33% 29.84 in 10.0 mi Calm Calm - N/A   Clear
8:52 AM 73.9 °F 37.0 °F 26% 29.86 in 10.0 mi WNW 6.9 mph - N/A   Clear
9:52 AM 78.1 °F 35.1 °F 21% 29.86 in 10.0 mi NW 9.2 mph - N/A   Clear
10:52 AM 81.0 °F 34.0 °F 18% 29.89 in 10.0 mi Calm Calm - N/A   Clear
11:52 AM 82.0 °F 34.0 °F 18% 29.88 in 10.0 mi Variable 3.5 mph - N/A   Clear
12:52 PM 84.9 °F 36.0 °F 17% 29.86 in 10.0 mi East 5.8 mph - N/A   Clear
1:52 PM 87.1 °F 37.0 °F 17% 29.84 in 10.0 mi SE 6.9 mph - N/A   Clear
2:52 PM 87.1 °F 36.0 °F 16% 29.82 in 10.0 mi Calm Calm - N/A   Clear
3:52 PM 88.0 °F 34.0 °F 15% 29.81 in 10.0 mi West 13.8 mph 18.4 mph N/A   Clear
4:52 PM 87.1 °F 33.1 °F 15% 29.78 in 10.0 mi West 10.4 mph - N/A   Clear
5:52 PM 84.9 °F 34.0 °F 16% 29.79 in 10.0 mi West 12.7 mph 19.6 mph N/A   Clear
6:52 PM 81.0 °F 37.9 °F 21% 29.80 in 10.0 mi West 11.5 mph - N/A   Clear
7:52 PM 75.9 °F 39.0 °F 26% 29.83 in 10.0 mi NNW 8.1 mph - N/A   Clear
8:52 PM 75.0 °F 45.0 °F 34% 29.85 in 10.0 mi NNW 12.7 mph - N/A   Clear
9:52 PM 73.9 °F 46.0 °F 37% 29.87 in 10.0 mi NNW 17.3 mph 25.3 mph N/A   Clear
10:52 PM 73.0 °F 45.0 °F 37% 29.88 in 10.0 mi NNW 12.7 mph - N/A   Clear
11:52 PM 72.0 °F 44.1 °F 37% 29.88 in 10.0 mi NNW 12.7 mph - N/A   Clear